| time (UTC) | temp C | wind direction | speed KPH | gust KPH | rain 1hr cm | rain 24hr cm | rain mn cm | humidity % | barometer mb |
| 20260506044706 | 8 | 331 | 3.2 | 9.7 | 0.03 | 0.15 | 0.10 | 78 | 1004.3 |
| 20260506044205 | 8 | 331 | 3.2 | 8.0 | 0.03 | 0.15 | 0.10 | 78 | 1004.4 |
| 20260506043705 | 8 | 333 | 1.6 | 8.0 | 0.03 | 0.15 | 0.10 | 78 | 1004.4 |
| 20260506043205 | 8 | 333 | 1.6 | 6.4 | 0.03 | 0.15 | 0.10 | 78 | 1004.3 |
| 20260506042705 | 8 | 333 | 1.6 | 12.9 | 0.03 | 0.15 | 0.10 | 78 | 1004.4 |
| 20260506042205 | 8 | 333 | 3.2 | 12.9 | 0.03 | 0.15 | 0.10 | 78 | 1004.3 |
| 20260506041705 | 8 | 333 | 3.2 | 12.9 | 0.03 | 0.15 | 0.10 | 78 | 1004.3 |
| 20260506041212 | 8 | 340 | 1.6 | 8.0 | 0.03 | 0.15 | 0.10 | 78 | 1004.3 |
| 20260506040705 | 8 | 340 | 1.6 | 8.0 | 0.03 | 0.15 | 0.10 | 78 | 1004.3 |
| 20260506040232 | 8 | 340 | 3.2 | 12.9 | 0.00 | 0.15 | 0.08 | 78 | 1004.3 |
| 20260506035705 | 8 | 340 | 3.2 | 12.9 | 0.00 | 0.15 | 0.08 | 78 | 1004.4 |
| 20260506035205 | 8 | 340 | 3.2 | 12.9 | 0.00 | 0.15 | 0.08 | 78 | 1004.4 |
| 20260506034705 | 8 | 342 | 3.2 | 8.0 | 0.03 | 0.15 | 0.08 | 78 | 1004.4 |
| 20260506033706 | 8 | 344 | 3.2 | 8.0 | 0.03 | 0.15 | 0.08 | 78 | 1004.4 |
| 20260506032705 | 8 | 343 | 1.6 | 8.0 | 0.03 | 0.15 | 0.08 | 78 | 1004.5 |
| 20260506031708 | 8 | 343 | 3.2 | 9.7 | 0.03 | 0.15 | 0.08 | 78 | 1004.5 |
| 20260506031205 | 8 | 344 | 3.2 | 9.7 | 0.03 | 0.15 | 0.08 | 78 | 1004.5 |
| 20260506030705 | 8 | 344 | 3.2 | 8.0 | 0.03 | 0.15 | 0.08 | 78 | 1004.5 |
| 20260506030205 | 8 | 344 | 1.6 | 9.7 | 0.03 | 0.15 | 0.08 | 78 | 1004.6 |
| 20260506025705 | 8 | 344 | 1.6 | 9.7 | 0.03 | 0.15 | 0.08 | 78 | 1004.6 |
| 20260506025206 | 8 | 344 | 3.2 | 12.9 | 0.00 | 0.13 | 0.05 | 78 | 1004.7 |
| 20260506024705 | 8 | 343 | 3.2 | 12.9 | 0.00 | 0.13 | 0.05 | 78 | 1004.7 |
| 20260506024205 | 8 | 343 | 3.2 | 12.9 | 0.00 | 0.13 | 0.05 | 78 | 1004.7 |
| 20260506023705 | 8 | 342 | 3.2 | 6.4 | 0.00 | 0.13 | 0.05 | 78 | 1004.7 |
| 20260506023207 | 8 | 342 | 1.6 | 6.4 | 0.00 | 0.15 | 0.05 | 78 | 1004.8 |
| 20260506022705 | 8 | 342 | 3.2 | 6.4 | 0.00 | 0.15 | 0.05 | 78 | 1004.8 |
| 20260506022205 | 8 | 342 | 3.2 | 12.9 | 0.00 | 0.15 | 0.05 | 78 | 1004.8 |
| 20260506021705 | 8 | 342 | 3.2 | 12.9 | 0.00 | 0.15 | 0.05 | 78 | 1004.8 |
| 20260506021205 | 8 | 342 | 3.2 | 12.9 | 0.03 | 0.15 | 0.05 | 78 | 1004.8 |
| 20260506020705 | 8 | 347 | 3.2 | 8.0 | 0.03 | 0.15 | 0.05 | 78 | 1004.8 |
| 20260506020206 | 8 | 347 | 3.2 | 8.0 | 0.03 | 0.15 | 0.05 | 78 | 1004.8 |
| 20260506015205 | 8 | 347 | 3.2 | 12.9 | 0.03 | 0.15 | 0.05 | 78 | 1004.9 |
| 20260506014705 | 8 | 347 | 3.2 | 12.9 | 0.03 | 0.15 | 0.05 | 78 | 1004.9 |
| 20260506014206 | 8 | 347 | 4.8 | 8.0 | 0.03 | 0.15 | 0.05 | 78 | 1004.9 |
| 20260506013705 | 8 | 346 | 3.2 | 8.0 | 0.03 | 0.15 | 0.05 | 78 | 1004.9 |
| 20260506013206 | 8 | 346 | 4.8 | 8.0 | 0.03 | 0.15 | 0.05 | 78 | 1005.0 |
| 20260506012705 | 8 | 346 | 4.8 | 14.5 | 0.03 | 0.15 | 0.05 | 78 | 1005.0 |
| 20260506012205 | 8 | 346 | 3.2 | 14.5 | 0.03 | 0.15 | 0.05 | 78 | 1005.0 |
| 20260506011705 | 8 | 346 | 3.2 | 9.7 | 0.00 | 0.13 | 0.05 | 78 | 1005.0 |
| 20260506011205 | 8 | 345 | 4.8 | 9.7 | 0.03 | 0.13 | 0.05 | 78 | 1005.1 |
| 20260506010706 | 8 | 344 | 3.2 | 9.7 | 0.03 | 0.13 | 0.05 | 78 | 1005.1 |
| 20260506010205 | 8 | 344 | 3.2 | 9.7 | 0.03 | 0.13 | 0.05 | 78 | 1005.1 |
| 20260506005207 | 9 | 344 | 3.2 | 9.7 | 0.03 | 0.13 | 0.05 | 78 | 1005.2 |
| 20260506004705 | 8 | 343 | 4.8 | 9.7 | 0.03 | 0.13 | 0.05 | 78 | 1005.2 |
| 20260506004206 | 9 | 343 | 3.2 | 9.7 | 0.03 | 0.13 | 0.05 | 78 | 1005.2 |
| 20260506003205 | 9 | 342 | 3.2 | 14.5 | 0.03 | 0.13 | 0.05 | 78 | 1005.3 |
| 20260506002706 | 9 | 342 | 3.2 | 14.5 | 0.03 | 0.13 | 0.05 | 78 | 1005.3 |
| 20260506001705 | 9 | 350 | 3.2 | 9.7 | 0.00 | 0.10 | 0.03 | 78 | 1005.4 |
| 20260506001209 | 9 | 0 | 3.2 | 9.7 | 0.00 | 0.10 | 0.03 | 78 | 1005.4 |
| 20260506000706 | 9 | 0 | 3.2 | 6.4 | 0.00 | 0.10 | 0.03 | 78 | 1005.5 |
| 20260505235705 | 9 | 0 | 3.2 | 8.0 | 0.00 | 0.10 | 0.03 | 78 | 1005.6 |
| 20260505235205 | 9 | 0 | 3.2 | 8.0 | 0.03 | 0.10 | 0.03 | 78 | 1005.7 |
| 20260505234706 | 9 | 0 | 3.2 | 8.0 | 0.03 | 0.10 | 0.03 | 78 | 1005.7 |
| 20260505233205 | 9 | 0 | 3.2 | 9.7 | 0.03 | 0.10 | 0.03 | 78 | 1005.8 |
| 20260505232706 | 9 | 0 | 3.2 | 9.7 | 0.03 | 0.10 | 0.03 | 78 | 1005.7 |
| 20260505232228 | 9 | 0 | 3.2 | 9.7 | 0.03 | 0.10 | 0.03 | 78 | 1005.8 |
| 20260505231205 | 9 | 0 | 1.6 | 6.4 | 0.03 | 0.10 | 0.03 | 78 | 1005.9 |
| 20260505230706 | 9 | 0 | 1.6 | 6.4 | 0.03 | 0.10 | 0.03 | 78 | 1005.9 |
| 20260505230206 | 9 | 0 | 1.6 | 6.4 | 0.03 | 0.10 | 0.03 | 78 | 1006.0 |
| 20260505225705 | 9 | 0 | 1.6 | 9.7 | 0.05 | 0.10 | 0.03 | 78 | 1006.0 |
| 20260505225205 | 9 | 0 | 1.6 | 9.7 | 0.03 | 0.08 | 0.00 | 78 | 1006.0 |
| 20260505224705 | 9 | 0 | 3.2 | 9.7 | 0.03 | 0.08 | 0.00 | 78 | 1006.0 |
| 20260505224205 | 9 | 0 | 4.8 | 9.7 | 0.03 | 0.08 | 0.00 | 78 | 1006.0 |
| 20260505223705 | 9 | 0 | 3.2 | 12.9 | 0.03 | 0.08 | 0.00 | 78 | 1006.0 |
| 20260505223205 | 9 | 0 | 3.2 | 12.9 | 0.03 | 0.08 | 0.00 | 78 | 1006.1 |
| 20260505222705 | 9 | 0 | 4.8 | 9.7 | 0.03 | 0.08 | 0.00 | 78 | 1006.1 |
| 20260505222205 | 9 | 0 | 3.2 | 8.0 | 0.03 | 0.08 | 0.00 | 78 | 1006.1 |
| 20260505221205 | 9 | 0 | 3.2 | 9.7 | 0.03 | 0.08 | 0.00 | 78 | 1006.1 |
| 20260505220705 | 9 | 0 | 3.2 | 9.7 | 0.03 | 0.08 | 0.00 | 78 | 1006.2 |
| 20260505220206 | 9 | 0 | 3.2 | 9.7 | 0.03 | 0.08 | 0.08 | 78 | 1006.1 |
| 20260505215705 | 9 | 355 | 1.6 | 12.9 | 0.00 | 0.05 | 0.05 | 78 | 1006.1 |
| 20260505215206 | 9 | 355 | 3.2 | 14.5 | 0.00 | 0.05 | 0.05 | 78 | 1006.2 |
| 20260505214206 | 9 | 355 | 4.8 | 14.5 | 0.03 | 0.05 | 0.05 | 79 | 1006.3 |
| 20260505213205 | 9 | 355 | 3.2 | 9.7 | 0.03 | 0.05 | 0.05 | 79 | 1006.3 |
| 20260505212205 | 9 | 355 | 3.2 | 9.7 | 0.03 | 0.05 | 0.05 | 79 | 1006.3 |
| 20260505211705 | 9 | 355 | 4.8 | 12.9 | 0.03 | 0.05 | 0.05 | 79 | 1006.3 |
| 20260505211205 | 9 | 355 | 4.8 | 12.9 | 0.03 | 0.05 | 0.05 | 79 | 1006.4 |
| 20260505210205 | 9 | 355 | 3.2 | 8.0 | 0.03 | 0.08 | 0.05 | 79 | 1006.4 |
| 20260505205705 | 10 | 355 | 3.2 | 8.0 | 0.03 | 0.08 | 0.05 | 79 | 1006.5 |
| 20260505205210 | 10 | 355 | 1.6 | 9.7 | 0.03 | 0.08 | 0.05 | 79 | 1006.5 |
| 20260505204707 | 10 | 355 | 3.2 | 9.7 | 0.00 | 0.05 | 0.05 | 79 | 1006.5 |
| 20260505204206 | 10 | 355 | 3.2 | 9.7 | 0.00 | 0.05 | 0.05 | 79 | 1006.5 |
| 20260505203705 | 10 | 355 | 4.8 | 8.0 | 0.00 | 0.05 | 0.05 | 79 | 1006.6 |
| 20260505203205 | 10 | 355 | 3.2 | 8.0 | 0.03 | 0.05 | 0.05 | 79 | 1006.6 |
| 20260505202205 | 10 | 355 | 3.2 | 8.0 | 0.03 | 0.05 | 0.05 | 79 | 1006.5 |
| 20260505200706 | 10 | 355 | 1.6 | 9.7 | 0.03 | 0.05 | 0.05 | 79 | 1006.5 |
| 20260505200205 | 10 | 355 | 3.2 | 9.7 | 0.03 | 0.05 | 0.05 | 79 | 1006.4 |
| 20260505195705 | 10 | 355 | 3.2 | 9.7 | 0.03 | 0.05 | 0.05 | 79 | 1006.4 |
| 20260505194706 | 10 | 355 | 3.2 | 9.7 | 0.03 | 0.05 | 0.05 | 80 | 1006.4 |
| 20260505194206 | 10 | 355 | 1.6 | 9.7 | 0.03 | 0.05 | 0.05 | 79 | 1006.4 |
| 20260505192705 | 10 | 0 | 3.2 | 9.7 | 0.00 | 0.05 | 0.03 | 80 | 1006.4 |
| 20260505192206 | 10 | 355 | 3.2 | 9.7 | 0.00 | 0.05 | 0.03 | 80 | 1006.3 |
| 20260505191705 | 10 | 355 | 3.2 | 9.7 | 0.00 | 0.05 | 0.03 | 80 | 1006.3 |
| 20260505191205 | 10 | 355 | 3.2 | 4.8 | 0.00 | 0.05 | 0.03 | 80 | 1006.3 |
| 20260505190705 | 10 | 0 | 1.6 | 4.8 | 0.00 | 0.05 | 0.03 | 80 | 1006.3 |
| 20260505185705 | 10 | 351 | 1.6 | 12.9 | 0.00 | 0.05 | 0.03 | 80 | 1006.2 |
| 20260505185206 | 10 | 351 | 4.8 | 12.9 | 0.00 | 0.08 | 0.03 | 80 | 1006.2 |
| 20260505184705 | 10 | 351 | 3.2 | 9.7 | 0.00 | 0.08 | 0.03 | 80 | 1006.2 |
| 20260505184206 | 10 | 355 | 3.2 | 9.7 | 0.00 | 0.08 | 0.03 | 80 | 1006.2 |
| 20260505182705 | 10 | 355 | 1.6 | 6.4 | 0.00 | 0.08 | 0.03 | 81 | 1006.2 |
| 20260505181208 | 10 | 355 | 3.2 | 9.7 | 0.00 | 0.08 | 0.03 | 81 | 1006.2 |
| 20260505180705 | 10 | 355 | 3.2 | 9.7 | 0.00 | 0.08 | 0.03 | 81 | 1006.3 |
| 20260505180205 | 10 | 355 | 4.8 | 8.0 | 0.00 | 0.10 | 0.03 | 81 | 1006.2 |
| 20260505175705 | 10 | 355 | 3.2 | 8.0 | 0.00 | 0.10 | 0.03 | 82 | 1006.3 |
| 20260505174705 | 10 | 355 | 1.6 | 6.4 | 0.00 | 0.10 | 0.03 | 82 | 1006.3 |
| 20260505174205 | 10 | 355 | 1.6 | 8.0 | 0.00 | 0.10 | 0.03 | 82 | 1006.3 |
| 20260505173205 | 10 | 355 | 1.6 | 8.0 | 0.00 | 0.13 | 0.03 | 82 | 1006.5 |
| 20260505171207 | 10 | 355 | 3.2 | 9.7 | 0.00 | 0.13 | 0.03 | 82 | 1006.5 |
| 20260505170706 | 10 | 355 | 1.6 | 9.7 | 0.00 | 0.13 | 0.03 | 82 | 1006.4 |
| 20260505170205 | 10 | 355 | 3.2 | 9.7 | 0.00 | 0.13 | 0.03 | 82 | 1006.5 |
| 20260505165705 | 10 | 355 | 3.2 | 12.9 | 0.00 | 0.13 | 0.03 | 83 | 1006.4 |
| 20260505165208 | 10 | 355 | 3.2 | 12.9 | 0.00 | 0.15 | 0.03 | 83 | 1006.5 |
| 20260505164706 | 10 | 355 | 3.2 | 9.7 | 0.00 | 0.15 | 0.03 | 83 | 1006.5 |
| 20260505164205 | 10 | 355 | 1.6 | 9.7 | 0.00 | 0.15 | 0.03 | 83 | 1006.5 |
| 20260505163706 | 10 | 355 | 1.6 | 6.4 | 0.00 | 0.15 | 0.03 | 82 | 1006.5 |
| 20260505163205 | 11 | 355 | 1.6 | 6.4 | 0.00 | 0.15 | 0.03 | 82 | 1006.5 |
| 20260505162705 | 11 | 355 | 1.6 | 4.8 | 0.00 | 0.15 | 0.03 | 82 | 1006.5 |
| 20260505162205 | 11 | 355 | 1.6 | 8.0 | 0.00 | 0.15 | 0.03 | 82 | 1006.6 |
| 20260505161205 | 11 | 355 | 1.6 | 9.7 | 0.00 | 0.15 | 0.03 | 83 | 1006.5 |
| 20260505160205 | 11 | 355 | 3.2 | 12.9 | 0.00 | 0.15 | 0.03 | 83 | 1006.6 |
| 20260505153205 | 11 | 5 | 3.2 | 12.9 | 0.00 | 0.18 | 0.03 | 83 | 1006.6 |
| 20260505152704 | 11 | 5 | 4.8 | 14.5 | 0.00 | 0.20 | 0.03 | 83 | 1006.6 |
| 20260505152205 | 11 | 5 | 4.8 | 14.5 | 0.00 | 0.20 | 0.03 | 83 | 1006.6 |
| 20260505151705 | 11 | 0 | 6.4 | 14.5 | 0.00 | 0.20 | 0.03 | 83 | 1006.6 |
| 20260505151228 | 11 | 355 | 4.8 | 12.9 | 0.00 | 0.20 | 0.03 | 83 | 1006.6 |
| 20260505150705 | 11 | 355 | 4.8 | 14.5 | 0.00 | 0.20 | 0.03 | 83 | 1006.6 |
| 20260505150205 | 11 | 355 | 4.8 | 14.5 | 0.00 | 0.20 | 0.03 | 83 | 1006.7 |
| 20260505140205 | 11 | 355 | 4.8 | 14.5 | 0.00 | 0.23 | 0.03 | 82 | 1006.8 |
| 20260505130205 | 12 | 355 | 3.2 | 9.7 | 0.00 | 0.23 | 0.03 | 82 | 1007.3 |
| 20260505124707 | 12 | 0 | 3.2 | 12.9 | 0.00 | 0.23 | 0.03 | 82 | 1007.4 |
| 20260505124205 | 12 | 5 | 3.2 | 12.9 | 0.00 | 0.23 | 0.03 | 82 | 1007.4 |
| 20260505123705 | 12 | 5 | 4.8 | 12.9 | 0.00 | 0.23 | 0.03 | 82 | 1007.4 |
| 20260505123205 | 12 | 5 | 4.8 | 11.3 | 0.00 | 0.23 | 0.03 | 82 | 1007.4 |
| 20260505122706 | 12 | 5 | 3.2 | 11.3 | 0.00 | 0.23 | 0.03 | 82 | 1007.4 |
| 20260505122205 | 12 | 5 | 1.6 | 12.9 | 0.00 | 0.23 | 0.03 | 82 | 1007.5 |
| 20260505121705 | 12 | 9 | 3.2 | 14.5 | 0.00 | 0.23 | 0.03 | 81 | 1007.4 |
| 20260505121205 | 12 | 9 | 4.8 | 14.5 | 0.00 | 0.23 | 0.03 | 82 | 1007.4 |
| 20260505120206 | 12 | 17 | 4.8 | 12.9 | 0.00 | 0.23 | 0.03 | 81 | 1007.4 |
| 20260505115706 | 12 | 0 | 3.2 | 12.9 | 0.00 | 0.23 | 0.03 | 81 | 1007.5 |
| 20260505114706 | 12 | 355 | 4.8 | 12.9 | 0.00 | 0.23 | 0.03 | 82 | 1007.5 |
| 20260505114205 | 12 | 336 | 4.8 | 12.9 | 0.00 | 0.23 | 0.03 | 81 | 1007.5 |
| 20260505113705 | 12 | 355 | 3.2 | 12.9 | 0.00 | 0.23 | 0.03 | 81 | 1007.5 |
| 20260505113205 | 12 | 349 | 3.2 | 14.5 | 0.00 | 0.23 | 0.03 | 81 | 1007.5 |
| 20260505112707 | 12 | 349 | 4.8 | 14.5 | 0.00 | 0.23 | 0.03 | 81 | 1007.5 |
| 20260505112206 | 12 | 349 | 4.8 | 12.9 | 0.00 | 0.23 | 0.03 | 82 | 1007.5 |
| 20260505111704 | 12 | 342 | 4.8 | 12.9 | 0.00 | 0.23 | 0.03 | 82 | 1007.5 |
| 20260505111205 | 12 | 337 | 4.8 | 14.5 | 0.00 | 0.23 | 0.03 | 82 | 1007.5 |
| 20260505110705 | 12 | 331 | 4.8 | 14.5 | 0.00 | 0.23 | 0.03 | 82 | 1007.5 |
| 20260505110206 | 12 | 331 | 4.8 | 12.9 | 0.00 | 0.23 | 0.03 | 82 | 1007.6 |
| 20260505102206 | 13 | 11 | 6.4 | 16.1 | 0.00 | 0.23 | 0.03 | 83 | 1007.6 |
| 20260505101706 | 13 | 5 | 6.4 | 16.1 | 0.00 | 0.23 | 0.03 | 83 | 1007.6 |
| 20260505101205 | 13 | 5 | 6.4 | 16.1 | 0.00 | 0.23 | 0.03 | 83 | 1007.7 |
| 20260505100706 | 14 | 346 | 4.8 | 14.5 | 0.00 | 0.23 | 0.03 | 83 | 1007.6 |
| 20260505100206 | 14 | 0 | 4.8 | 12.9 | 0.00 | 0.23 | 0.03 | 83 | 1007.6 |
| 20260505095705 | 15 | 0 | 3.2 | 8.0 | 0.00 | 0.23 | 0.03 | 83 | 1007.6 |
| 20260505095211 | 15 | 5 | 1.6 | 6.4 | 0.00 | 0.23 | 0.03 | 83 | 1007.5 |
| 20260505094705 | 15 | 5 | 0.0 | 6.4 | 0.00 | 0.23 | 0.03 | 83 | 1007.5 |
| 20260505094205 | 15 | 5 | 0.0 | 8.0 | 0.00 | 0.23 | 0.03 | 83 | 1007.6 |
| 20260505093705 | 15 | 5 | 1.6 | 8.0 | 0.00 | 0.23 | 0.03 | 83 | 1007.6 |
| 20260505093205 | 14 | 5 | 1.6 | 4.8 | 0.00 | 0.23 | 0.03 | 83 | 1007.7 |
| 20260505092206 | 14 | 5 | 0.0 | 4.8 | 0.00 | 0.23 | 0.03 | 83 | 1007.7 |
| 20260505091706 | 14 | 5 | 0.0 | 4.8 | 0.00 | 0.23 | 0.03 | 83 | 1007.8 |
| 20260505090705 | 14 | 10 | 0.0 | 6.4 | 0.00 | 0.23 | 0.03 | 82 | 1007.9 |
| 20260505090205 | 13 | 10 | 0.0 | 6.4 | 0.00 | 0.23 | 0.03 | 81 | 1007.8 |
| 20260505085705 | 13 | 10 | 1.6 | 4.8 | 0.00 | 0.23 | 0.03 | 81 | 1007.9 |
| 20260505085205 | 13 | 10 | 1.6 | 4.8 | 0.00 | 0.23 | 0.03 | 81 | 1007.9 |
| 20260505084706 | 13 | 10 | 1.6 | 4.8 | 0.00 | 0.23 | 0.03 | 80 | 1007.8 |
| 20260505084205 | 13 | 10 | 0.0 | 4.8 | 0.00 | 0.23 | 0.03 | 80 | 1007.9 |
| 20260505083705 | 13 | 10 | 0.0 | 3.2 | 0.00 | 0.23 | 0.03 | 80 | 1007.8 |
| 20260505083205 | 13 | 10 | 0.0 | 3.2 | 0.00 | 0.23 | 0.03 | 79 | 1007.8 |
| 20260505081705 | 13 | 10 | 0.0 | 3.2 | 0.00 | 0.23 | 0.03 | 79 | 1007.8 |
| 20260505081205 | 13 | 10 | 0.0 | 3.2 | 0.00 | 0.23 | 0.03 | 79 | 1007.8 |
| 20260505080705 | 13 | 10 | 0.0 | 3.2 | 0.00 | 0.23 | 0.03 | 79 | 1007.9 |
| 20260505080205 | 13 | 10 | 0.0 | 6.4 | 0.00 | 0.23 | 0.03 | 79 | 1007.9 |
| 20260505075705 | 13 | 10 | 0.0 | 6.4 | 0.00 | 0.23 | 0.03 | 78 | 1007.9 |
| 20260505075205 | 13 | 10 | 0.0 | 3.2 | 0.00 | 0.23 | 0.03 | 78 | 1007.9 |
| 20260505074706 | 13 | 10 | 0.0 | 3.2 | 0.00 | 0.23 | 0.03 | 79 | 1008.0 |
| 20260505074205 | 13 | 10 | 0.0 | 1.6 | 0.00 | 0.23 | 0.03 | 78 | 1007.9 |
| 20260505073705 | 13 | 10 | 0.0 | 1.6 | 0.00 | 0.23 | 0.03 | 78 | 1008.0 |
| 20260505073205 | 13 | 10 | 0.0 | 1.6 | 0.00 | 0.23 | 0.03 | 78 | 1008.0 |
| 20260505072705 | 13 | 10 | 0.0 | 1.6 | 0.00 | 0.23 | 0.03 | 78 | 1008.0 |
| 20260505072206 | 13 | 10 | 0.0 | 0.0 | 0.00 | 0.23 | 0.03 | 78 | 1008.0 |
| 20260505071705 | 13 | 10 | 0.0 | 0.0 | 0.00 | 0.23 | 0.03 | 78 | 1008.0 |
| 20260505070205 | 12 | 10 | 0.0 | 1.6 | 0.00 | 0.23 | 0.03 | 78 | 1008.0 |
| 20260505065705 | 12 | 10 | 0.0 | 1.6 | 0.00 | 0.23 | 0.03 | 78 | 1008.0 |
| 20260505065205 | 12 | 10 | 0.0 | 1.6 | 0.00 | 0.23 | 0.03 | 78 | 1008.0 |
| 20260505064705 | 12 | 10 | 0.0 | 1.6 | 0.00 | 0.23 | 0.03 | 79 | 1008.1 |
| 20260505064205 | 13 | 10 | 0.0 | 1.6 | 0.00 | 0.23 | 0.03 | 78 | 1008.1 |
| 20260505063706 | 13 | 10 | 0.0 | 1.6 | 0.00 | 0.23 | 0.03 | 78 | 1008.2 |
| 20260505062705 | 13 | 10 | 0.0 | 0.0 | 0.00 | 0.23 | 0.03 | 78 | 1008.2 |
| 20260505061705 | 12 | 10 | 0.0 | 0.0 | 0.00 | 0.23 | 0.03 | 78 | 1008.3 |
| 20260505061205 | 12 | 10 | 0.0 | 0.0 | 0.00 | 0.23 | 0.03 | 78 | 1008.3 |
| 20260505060705 | 12 | 10 | 0.0 | 0.0 | 0.00 | 0.23 | 0.03 | 78 | 1008.3 |
| 20260505060208 | 12 | 10 | 0.0 | 0.0 | 0.00 | 0.23 | 0.03 | 78 | 1008.3 |
| 20260505055705 | 12 | 10 | 0.0 | 0.0 | 0.00 | 0.23 | 0.03 | 79 | 1008.3 |
| 20260505055205 | 12 | 10 | 0.0 | 1.6 | 0.00 | 0.23 | 0.03 | 78 | 1008.3 |
| 20260505054705 | 12 | 10 | 0.0 | 3.2 | 0.00 | 0.23 | 0.03 | 78 | 1008.2 |
| 20260505054205 | 12 | 10 | 0.0 | 3.2 | 0.00 | 0.23 | 0.03 | 78 | 1008.2 |
| 20260505053705 | 12 | 10 | 0.0 | 3.2 | 0.00 | 0.23 | 0.03 | 78 | 1008.2 |
| 20260505052705 | 12 | 10 | 0.0 | 1.6 | 0.00 | 0.23 | 0.03 | 78 | 1008.2 |
| 20260505052205 | 12 | 10 | 0.0 | 1.6 | 0.00 | 0.23 | 0.03 | 78 | 1008.2 |
| 20260505051706 | 12 | 10 | 0.0 | 0.0 | 0.00 | 0.23 | 0.03 | 79 | 1008.2 |
| 20260505050705 | 12 | 10 | 0.0 | 0.0 | 0.00 | 0.23 | 0.03 | 79 | 1008.2 |
| 20260505050205 | 12 | 10 | 0.0 | 0.0 | 0.00 | 0.23 | 0.03 | 79 | 1008.2 |